CFG6TJ EDDF-LOWW

Flight info

Callsign CFG6TJ
Flight time 0h 58m
Altitude 35000
Route SULUS7S/18 SULUS Z650 VEMUT DCT ETVIS DCT BUDWA DCT BUDEX BUDEX2W
Aircraft A321/M-SDE2E3FGHIJ1RWXYZ/LB1

Departure

Time 2026-05-06 15:22
Airport Frankfurt Main Airport (EDDF)

Arrival

Time 2026-05-06 16:20
Airport Vienna International Airport (LOWW)
Time Latitude Longitude Altitude Speed Heading
2026-05-06 14:48 50.04846 8.58905 354 ft 0 kts 340°
2026-05-06 15:08 50.04834 8.58912 354 ft 4 kts 340°
2026-05-06 15:08 50.04809 8.58926 351 ft 4 kts 340°
2026-05-06 15:08 50.04784 8.58941 355 ft 4 kts 340°
2026-05-06 15:08 50.04762 8.58954 356 ft 1 kts 340°
2026-05-06 15:09 50.04761 8.58954 356 ft 0 kts 340°
2026-05-06 15:11 50.04763 8.58953 356 ft 1 kts 339°
2026-05-06 15:11 50.04765 8.58945 355 ft 1 kts 295°
2026-05-06 15:12 50.04755 8.58877 353 ft 13 kts 251°
2026-05-06 15:12 50.04712 8.58777 348 ft 8 kts 210°
2026-05-06 15:12 50.04660 8.58759 346 ft 6 kts 186°
2026-05-06 15:12 50.04655 8.58758 346 ft 0 kts 186°
2026-05-06 15:16 50.04654 8.58758 346 ft 0 kts 186°
2026-05-06 15:17 50.04637 8.58755 346 ft 5 kts 188°
2026-05-06 15:17 50.04590 8.58721 354 ft 10 kts 217°
2026-05-06 15:17 50.04515 8.58645 349 ft 16 kts 216°
2026-05-06 15:17 50.04490 8.58591 351 ft 0 kts 246°
2026-05-06 15:21 50.04478 8.58549 351 ft 27 kts 247°
2026-05-06 15:21 50.04313 8.57849 348 ft 106 kts 250°
2026-05-06 15:22 50.03987 8.56449 354 ft 164 kts 250°
2026-05-06 15:22 50.03540 8.54668 739 ft 181 kts 252°
2026-05-06 15:22 50.03109 8.52863 1645 ft 176 kts 251°
2026-05-06 15:22 50.02593 8.51080 2139 ft 192 kts 234°
2026-05-06 15:23 50.01420 8.49873 2623 ft 215 kts 199°
2026-05-06 15:23 50.00011 8.49194 3668 ft 213 kts 198°
2026-05-06 15:23 49.98533 8.49170 4725 ft 220 kts 162°
2026-05-06 15:23 49.97320 8.50659 5703 ft 232 kts 128°
2026-05-06 15:24 49.96459 8.52802 6715 ft 235 kts 123°
2026-05-06 15:24 49.95626 8.55111 7375 ft 257 kts 121°
2026-05-06 15:24 49.94731 8.57676 7989 ft 279 kts 120°
2026-05-06 15:24 49.94079 8.60585 8865 ft 292 kts 102°
2026-05-06 15:25 49.93925 8.63772 9842 ft 298 kts 95°
2026-05-06 15:25 49.93533 8.66972 10493 ft 312 kts 110°
2026-05-06 15:25 49.92529 8.70061 10798 ft 332 kts 128°
2026-05-06 15:25 49.90991 8.72605 11040 ft 351 kts 143°
2026-05-06 15:26 49.88974 8.74893 11426 ft 367 kts 142°
2026-05-06 15:26 49.87186 8.77784 12107 ft 376 kts 130°
2026-05-06 15:26 49.85735 8.81187 12864 ft 382 kts 121°
2026-05-06 15:26 49.84522 8.84776 13620 ft 386 kts 118°
2026-05-06 15:27 49.83364 8.88549 14281 ft 390 kts 116°
2026-05-06 15:27 49.82189 8.92354 14942 ft 393 kts 118°
2026-05-06 15:27 49.80950 8.96152 15601 ft 396 kts 119°
2026-05-06 15:27 49.79646 8.99918 16233 ft 398 kts 120°
2026-05-06 15:28 49.78307 9.03628 16821 ft 401 kts 121°
2026-05-06 15:28 49.76939 9.07411 17400 ft 405 kts 118°
2026-05-06 15:28 49.75868 9.11468 17960 ft 411 kts 109°
2026-05-06 15:28 49.75134 9.15768 18458 ft 414 kts 106°
2026-05-06 15:29 49.74436 9.20108 18960 ft 417 kts 106°
2026-05-06 15:29 49.73742 9.24477 19463 ft 420 kts 106°
2026-05-06 15:29 49.73039 9.28888 19984 ft 423 kts 105°
2026-05-06 15:29 49.72329 9.33297 20518 ft 426 kts 105°
2026-05-06 15:30 49.71604 9.37755 21045 ft 429 kts 106°
2026-05-06 15:30 49.70868 9.42255 21587 ft 432 kts 106°
2026-05-06 15:30 49.70130 9.46762 22130 ft 435 kts 106°
2026-05-06 15:30 49.69381 9.51308 22660 ft 438 kts 107°
2026-05-06 15:31 49.68621 9.55890 23160 ft 442 kts 107°
2026-05-06 15:31 49.67881 9.60520 23601 ft 446 kts 103°
2026-05-06 15:31 49.67503 9.65317 24037 ft 452 kts 94°
2026-05-06 15:32 49.68272 9.74975 24874 ft 462 kts 76°
2026-05-06 15:32 49.69139 9.79754 25305 ft 465 kts 76°
2026-05-06 15:32 49.70002 9.84601 25729 ft 468 kts 77°
2026-05-06 15:32 49.70867 9.89466 26137 ft 471 kts 75°
2026-05-06 15:33 49.72026 9.94229 26508 ft 476 kts 67°
2026-05-06 15:33 49.73631 9.98729 26817 ft 481 kts 58°
2026-05-06 15:33 49.75574 10.02974 27061 ft 486 kts 56°
2026-05-06 15:33 49.77561 10.07240 27388 ft 489 kts 56°
2026-05-06 15:34 49.79530 10.11477 27692 ft 491 kts 56°
2026-05-06 15:34 49.81522 10.15789 27965 ft 493 kts 56°
2026-05-06 15:34 49.83515 10.20122 28325 ft 493 kts 56°
2026-05-06 15:34 49.85508 10.24453 28710 ft 493 kts 56°
2026-05-06 15:35 49.87499 10.28791 29074 ft 493 kts 56°
2026-05-06 15:35 49.89492 10.33146 29441 ft 493 kts 56°
2026-05-06 15:35 49.91477 10.37492 29817 ft 493 kts 56°
2026-05-06 15:35 49.93458 10.41838 30123 ft 493 kts 56°
2026-05-06 15:36 49.95440 10.46190 30427 ft 494 kts 56°
2026-05-06 15:36 49.97401 10.50499 30778 ft 493 kts 56°
2026-05-06 15:36 49.99386 10.54864 31035 ft 495 kts 56°
2026-05-06 15:36 50.01378 10.59260 31246 ft 498 kts 56°
2026-05-06 15:37 50.03169 10.63869 31516 ft 497 kts 66°
2026-05-06 15:37 50.04425 10.68861 31808 ft 495 kts 77°
2026-05-06 15:37 50.05138 10.74073 32116 ft 491 kts 86°
2026-05-06 15:37 50.05305 10.79357 32430 ft 486 kts 96°
2026-05-06 15:38 50.04923 10.84511 32720 ft 481 kts 107°
2026-05-06 15:38 50.04031 10.89487 33023 ft 476 kts 114°
2026-05-06 15:38 50.02993 10.94390 33341 ft 477 kts 114°
2026-05-06 15:38 50.01951 10.99297 33662 ft 478 kts 114°
2026-05-06 15:39 50.00907 11.04201 33977 ft 477 kts 114°
2026-05-06 15:39 49.99863 11.09092 34322 ft 476 kts 114°
2026-05-06 15:39 49.98829 11.13924 34623 ft 476 kts 114°
2026-05-06 15:39 49.97782 11.18810 34750 ft 476 kts 114°
2026-05-06 15:40 49.95693 11.28561 34774 ft 476 kts 113°
2026-05-06 15:40 49.93618 11.38322 34773 ft 476 kts 113°
2026-05-06 15:41 49.91956 11.46475 34769 ft 476 kts 111°
2026-05-06 15:41 49.90159 11.56399 34769 ft 477 kts 110°
2026-05-06 15:42 49.88421 11.66351 34765 ft 479 kts 108°
2026-05-06 15:42 49.87392 11.76626 34765 ft 483 kts 102°
2026-05-06 15:43 49.86472 11.86937 34737 ft 483 kts 103°
2026-05-06 15:43 49.85543 11.97200 34754 ft 482 kts 103°
2026-05-06 15:44 49.84609 12.07509 34756 ft 482 kts 103°
2026-05-06 15:44 49.83678 12.17807 34764 ft 482 kts 103°
2026-05-06 15:45 49.82740 12.28101 34768 ft 482 kts 103°
2026-05-06 15:45 49.81790 12.38381 34765 ft 483 kts 104°
2026-05-06 15:46 49.79846 12.48192 34760 ft 470 kts 122°
2026-05-06 15:46 49.76474 12.56628 34761 ft 462 kts 130°
2026-05-06 15:47 49.72859 12.64832 34761 ft 462 kts 130°
2026-05-06 15:47 49.69230 12.73043 34734 ft 462 kts 131°
2026-05-06 15:48 49.65594 12.81247 34754 ft 462 kts 131°
2026-05-06 15:48 49.61959 12.89451 34755 ft 462 kts 131°
2026-05-06 15:49 49.58320 12.97629 34755 ft 462 kts 131°
2026-05-06 15:49 49.54692 13.05751 34756 ft 462 kts 131°
2026-05-06 15:50 49.51042 13.13898 34770 ft 462 kts 131°
2026-05-06 15:50 49.47382 13.22037 34771 ft 462 kts 131°
2026-05-06 15:51 49.43713 13.30171 34769 ft 462 kts 132°
2026-05-06 15:51 49.40043 13.38291 34773 ft 462 kts 131°
2026-05-06 15:52 49.36373 13.46394 34745 ft 462 kts 131°
2026-05-06 15:52 49.32708 13.54442 34753 ft 463 kts 131°
2026-05-06 15:53 49.29000 13.62538 34747 ft 463 kts 131°
2026-05-06 15:53 49.25256 13.70560 34747 ft 462 kts 133°
2026-05-06 15:54 49.21451 13.78495 34749 ft 462 kts 133°
2026-05-06 15:54 49.17638 13.86416 34732 ft 462 kts 133°
2026-05-06 15:55 49.13827 13.94345 34743 ft 463 kts 133°
2026-05-06 15:55 49.10018 14.02264 34741 ft 463 kts 134°
2026-05-06 15:56 49.06206 14.10183 34741 ft 462 kts 134°
2026-05-06 15:56 49.02413 14.18030 34742 ft 462 kts 134°
2026-05-06 15:57 48.98595 14.25903 34741 ft 462 kts 134°
2026-05-06 15:57 48.94761 14.33761 34740 ft 461 kts 135°
2026-05-06 15:58 48.90894 14.41524 34735 ft 460 kts 135°
2026-05-06 15:58 48.86969 14.49231 34696 ft 458 kts 136°
2026-05-06 15:59 48.85016 14.53060 34415 ft 458 kts 136°
2026-05-06 15:59 48.83067 14.56892 34177 ft 459 kts 136°
2026-05-06 15:59 48.81109 14.60745 33905 ft 460 kts 136°
2026-05-06 15:59 48.79182 14.64539 33661 ft 460 kts 136°
2026-05-06 16:00 48.77222 14.68392 33384 ft 460 kts 136°
2026-05-06 16:00 48.75257 14.72245 33114 ft 460 kts 136°
2026-05-06 16:00 48.73290 14.76096 32840 ft 461 kts 136°
2026-05-06 16:00 48.71321 14.79949 32565 ft 462 kts 136°
2026-05-06 16:01 48.69377 14.83750 32302 ft 463 kts 136°
2026-05-06 16:01 48.67400 14.87609 31278 ft 465 kts 136°
2026-05-06 16:01 48.65403 14.91486 30048 ft 470 kts 135°
2026-05-06 16:01 48.63378 14.95407 28638 ft 473 kts 134°
2026-05-06 16:02 48.61357 14.99344 27337 ft 475 kts 133°
2026-05-06 16:02 48.59582 15.03597 26032 ft 483 kts 123°
2026-05-06 16:02 48.58242 15.08273 24757 ft 483 kts 114°
2026-05-06 16:02 48.57370 15.13063 23534 ft 462 kts 109°
2026-05-06 16:03 48.56598 15.17719 21807 ft 450 kts 109°
2026-05-06 16:03 48.55823 15.22268 21105 ft 446 kts 109°
2026-05-06 16:03 48.55034 15.26794 20569 ft 444 kts 110°
2026-05-06 16:03 48.54242 15.31288 19779 ft 440 kts 110°
2026-05-06 16:04 48.53457 15.35723 18815 ft 435 kts 109°
2026-05-06 16:04 48.52692 15.40060 18109 ft 430 kts 109°
2026-05-06 16:04 48.52024 15.44462 17050 ft 431 kts 102°
2026-05-06 16:04 48.51725 15.48950 15946 ft 429 kts 98°
2026-05-06 16:05 48.51488 15.53393 15329 ft 418 kts 97°
2026-05-06 16:05 48.51252 15.57766 15071 ft 419 kts 98°
2026-05-06 16:05 48.51014 15.62039 14831 ft 399 kts 98°
2026-05-06 16:05 48.50784 15.66114 14587 ft 381 kts 98°
2026-05-06 16:06 48.50560 15.70021 14347 ft 367 kts 98°
2026-05-06 16:06 48.50337 15.73825 14108 ft 361 kts 98°
2026-05-06 16:06 48.50114 15.77583 13860 ft 359 kts 98°
2026-05-06 16:06 48.49936 15.81337 13510 ft 360 kts 93°
2026-05-06 16:07 48.50008 15.85073 12466 ft 354 kts 90°
2026-05-06 16:07 48.50145 15.88700 12171 ft 337 kts 89°
2026-05-06 16:07 48.50296 15.92103 12028 ft 321 kts 89°
2026-05-06 16:07 48.50442 15.95404 11330 ft 311 kts 89°
2026-05-06 16:08 48.50579 15.98644 10649 ft 306 kts 89°
2026-05-06 16:08 48.50707 16.01880 10359 ft 311 kts 90°
2026-05-06 16:08 48.50828 16.05144 10063 ft 311 kts 90°
2026-05-06 16:08 48.50946 16.08409 9790 ft 311 kts 90°
2026-05-06 16:09 48.51060 16.11648 9547 ft 309 kts 90°
2026-05-06 16:09 48.51172 16.14879 9286 ft 308 kts 90°
2026-05-06 16:09 48.51283 16.18091 9020 ft 306 kts 90°
2026-05-06 16:09 48.51393 16.21277 8750 ft 305 kts 90°
2026-05-06 16:10 48.51502 16.24486 8494 ft 305 kts 89°
2026-05-06 16:10 48.51609 16.27673 8240 ft 300 kts 90°
2026-05-06 16:10 48.51716 16.30762 7992 ft 291 kts 90°
2026-05-06 16:10 48.51820 16.33826 7742 ft 294 kts 91°
2026-05-06 16:11 48.51615 16.36839 7492 ft 286 kts 111°
2026-05-06 16:11 48.50760 16.39485 7244 ft 277 kts 131°
2026-05-06 16:11 48.49428 16.41463 7002 ft 269 kts 150°
2026-05-06 16:11 48.47765 16.42670 6761 ft 263 kts 167°
2026-05-06 16:12 48.46006 16.43412 6527 ft 262 kts 168°
2026-05-06 16:12 48.44254 16.44150 6297 ft 261 kts 168°
2026-05-06 16:12 48.42514 16.44881 6050 ft 260 kts 167°
2026-05-06 16:12 48.40781 16.45604 5799 ft 253 kts 168°
2026-05-06 16:13 48.39115 16.46298 5558 ft 244 kts 168°
2026-05-06 16:13 48.37508 16.46967 5301 ft 235 kts 168°
2026-05-06 16:13 48.35950 16.47620 5074 ft 227 kts 167°
2026-05-06 16:13 48.34466 16.48252 4996 ft 214 kts 168°
2026-05-06 16:14 48.33094 16.48840 4867 ft 204 kts 168°
2026-05-06 16:14 48.31751 16.49418 4602 ft 193 kts 168°
2026-05-06 16:14 48.30520 16.49952 4342 ft 175 kts 168°
2026-05-06 16:14 48.29406 16.50434 4125 ft 158 kts 169°
2026-05-06 16:15 48.28390 16.50871 3917 ft 146 kts 169°
2026-05-06 16:15 48.27446 16.51275 3724 ft 138 kts 170°
2026-05-06 16:15 48.26532 16.51661 3546 ft 135 kts 171°
2026-05-06 16:15 48.25631 16.52040 3376 ft 134 kts 171°
2026-05-06 16:16 48.24696 16.52429 3204 ft 147 kts 170°
2026-05-06 16:16 48.23706 16.52844 3002 ft 151 kts 169°
2026-05-06 16:16 48.22691 16.53275 2795 ft 151 kts 169°
2026-05-06 16:16 48.21675 16.53706 2588 ft 151 kts 169°
2026-05-06 16:17 48.20666 16.54131 2389 ft 151 kts 168°
2026-05-06 16:17 48.19657 16.54558 2184 ft 150 kts 167°
2026-05-06 16:17 48.18680 16.54973 2010 ft 138 kts 168°
2026-05-06 16:17 48.17823 16.55340 1819 ft 123 kts 168°
2026-05-06 16:18 48.17019 16.55682 1639 ft 118 kts 168°
2026-05-06 16:18 48.16241 16.56007 1491 ft 115 kts 168°
2026-05-06 16:18 48.15477 16.56308 1354 ft 114 kts 168°
2026-05-06 16:18 48.14727 16.56650 1184 ft 112 kts 167°
2026-05-06 16:19 48.13968 16.56976 1075 ft 115 kts 168°
2026-05-06 16:19 48.13449 16.57189 958 ft 116 kts 168°
2026-05-06 16:19 48.12387 16.57636 749 ft 121 kts 167°
2026-05-06 16:19 48.11857 16.57868 648 ft 120 kts 167°
2026-05-06 16:20 48.11093 16.58197 610 ft 103 kts 167°
2026-05-06 16:20 48.10555 16.58412 621 ft 56 kts 164°
2026-05-06 16:20 48.10344 16.58482 610 ft 16 kts 189°
2026-05-06 16:20 48.10231 16.58439 614 ft 18 kts 193°
2026-05-06 16:21 48.10142 16.58380 622 ft 10 kts 238°
2026-05-06 16:21 48.10099 16.58298 615 ft 10 kts 236°
2026-05-06 16:21 48.10102 16.58203 627 ft 9 kts 311°
2026-05-06 16:21 48.10166 16.58167 625 ft 11 kts 343°
2026-05-06 16:22 48.10248 16.58130 622 ft 14 kts 342°
2026-05-06 16:22 48.10348 16.58084 615 ft 16 kts 345°
2026-05-06 16:22 48.10460 16.58041 621 ft 17 kts 342°
2026-05-06 16:22 48.10582 16.57989 618 ft 19 kts 343°
2026-05-06 16:23 48.10705 16.57937 627 ft 19 kts 344°
2026-05-06 16:23 48.10839 16.57880 618 ft 21 kts 344°
2026-05-06 16:23 48.10978 16.57820 622 ft 21 kts 343°
2026-05-06 16:23 48.11123 16.57759 619 ft 17 kts 341°
2026-05-06 16:24 48.11183 16.57635 622 ft 15 kts 296°
2026-05-06 16:24 48.11231 16.57488 626 ft 16 kts 296°
2026-05-06 16:24 48.11279 16.57341 623 ft 16 kts 296°
2026-05-06 16:24 48.11330 16.57185 627 ft 18 kts 296°
2026-05-06 16:25 48.11386 16.57017 631 ft 18 kts 296°
2026-05-06 16:25 48.11434 16.56866 625 ft 17 kts 295°
2026-05-06 16:25 48.11462 16.56780 622 ft 3 kts 295°
2026-05-06 16:25 48.11467 16.56764 618 ft 0 kts 296°
2026-05-06 16:26 48.11467 16.56762 618 ft 2 kts 296°
2026-05-06 16:26 48.11486 16.56708 614 ft 11 kts 296°
2026-05-06 16:26 48.11532 16.56568 620 ft 19 kts 295°
2026-05-06 16:27 48.11593 16.56382 614 ft 19 kts 295°
2026-05-06 16:27 48.11655 16.56254 620 ft 12 kts 348°
2026-05-06 16:27 48.11735 16.56301 617 ft 12 kts 35°
2026-05-06 16:27 48.11747 16.56410 612 ft 13 kts 116°
2026-05-06 16:28 48.11703 16.56533 614 ft 10 kts 118°
2026-05-06 16:28 48.11674 16.56601 610 ft 9 kts 161°
2026-05-06 16:28 48.11630 16.56582 620 ft 1 kts 202°
2026-05-06 16:28 48.11620 16.56575 615 ft 4 kts 204°
2026-05-06 16:29 48.11616 16.56573 614 ft 0 kts 204°